FW7875 Weather Reports


Display with metric or nautical units.
time (UTC)temp
F
wind
direction
speed
MPH
gust
MPH
rain 1hr
in
rain 24hr
in
rain mn
in
humidity
%
barometer
mb
20260905012521 76 248 9.0 12.0 0.00 0.00 0.00 35 1021.0
20260905012021 76 250 7.0 13.0 0.00 0.00 0.00 35 1021.0
20260905011538 77 233 6.0 13.0 0.00 0.00 0.00 34 1021.1
20260905011020 78 208 7.0 12.0 0.00 0.00 0.00 33 1021.0
20260905010520 78 195 6.0 14.0 0.00 0.00 0.00 32 1021.1
20260905010040 78 229 8.0 14.0 0.00 0.00 0.00 32 1021.0
20260905005517 78 201 5.0 13.0 0.00 0.00 0.00 32 1021.0
20260905005020 78 219 8.0 18.0 0.00 0.00 0.00 32 1021.0
20260905004540 79 224 10.0 18.0 0.00 0.00 0.00 31 1021.0
20260905004022 79 265 9.0 14.0 0.00 0.00 0.00 32 1020.9
20260905003518 79 240 8.0 15.0 0.00 0.00 0.00 32 1021.0
20260905003039 79 224 7.0 16.0 0.00 0.00 0.00 31 1021.0
20260905002519 79 217 9.0 20.0 0.00 0.00 0.00 30 1021.2
20260905002022 79 232 11.0 20.0 0.00 0.00 0.00 30 1021.1
20260905001538 79 254 12.0 17.0 0.00 0.00 0.00 30 1021.1
20260905001020 79 254 11.0 20.0 0.00 0.00 0.00 30 1021.0
20260905000520 79 276 10.0 20.0 0.00 0.00 0.00 30 1021.0
20260905000040 80 271 12.0 17.0 0.00 0.00 0.00 30 1021.0
20260904235518 80 212 11.0 18.0 0.00 0.00 0.00 30 1020.9
20260904235022 80 257 12.0 19.0 0.00 0.00 0.00 29 1021.0
20260904234544 81 254 12.0 19.0 0.00 0.00 0.00 29 1021.0
20260904234020 80 276 9.0 18.0 0.00 0.00 0.00 29 1020.9
20260904233520 81 221 12.0 18.0 0.00 0.00 0.00 27 1021.0
20260904233036 81 250 10.0 20.0 0.00 0.00 0.00 28 1021.0
20260904232520 80 226 13.0 20.0 0.00 0.00 0.00 27 1020.9
20260904232024 81 270 10.0 21.0 0.00 0.00 0.00 26 1021.0
20260904231538 81 229 11.0 21.0 0.00 0.00 0.00 26 1020.9
20260904231020 81 216 13.0 21.0 0.00 0.00 0.00 25 1020.9
20260904230520 81 260 12.0 18.0 0.00 0.00 0.00 27 1021.0
20260904230039 81 259 10.0 17.0 0.00 0.00 0.00 27 1021.1
20260904225519 81 273 9.0 22.0 0.00 0.00 0.00 28 1021.1
20260904225021 81 224 11.0 22.0 0.00 0.00 0.00 28 1021.0
20260904224549 81 226 15.0 22.0 0.00 0.00 0.00 27 1021.0
20260904224020 81 238 10.0 17.0 0.00 0.00 0.00 29 1021.1
20260904223519 81 282 11.0 18.0 0.00 0.00 0.00 28 1021.2
20260904223041 81 187 12.0 18.0 0.00 0.00 0.00 28 1021.1
20260904222518 80 257 9.0 20.0 0.00 0.00 0.00 28 1021.1
20260904222020 80 214 11.0 20.0 0.00 0.00 0.00 29 1021.2
20260904221537 81 252 11.0 22.0 0.00 0.00 0.00 29 1021.1
20260904221020 81 252 12.0 22.0 0.00 0.00 0.00 29 1021.0
20260904220523 80 259 15.0 22.0 0.00 0.00 0.00 29 1021.2
20260904220040 80 169 10.0 20.0 0.00 0.00 0.00 28 1021.2
20260904215518 80 269 10.0 25.0 0.00 0.00 0.00 29 1021.4
20260904215019 81 236 16.0 25.0 0.00 0.00 0.00 28 1021.4
20260904214540 81 214 11.0 20.0 0.00 0.00 0.00 26 1021.4
20260904214019 81 217 10.0 21.0 0.00 0.00 0.00 28 1021.3
20260904213524 81 247 14.0 21.0 0.00 0.00 0.00 29 1021.4
20260904213040 81 219 13.0 20.0 0.00 0.00 0.00 27 1021.4
20260904212519 81 186 11.0 19.0 0.00 0.00 0.00 28 1021.7
20260904212021 80 236 11.0 19.0 0.00 0.00 0.00 28 1021.6
20260904211539 80 207 14.0 19.0 0.00 0.00 0.00 28 1021.6
20260904211020 81 252 10.0 23.0 0.00 0.00 0.00 30 1021.6
20260904210522 81 234 13.0 23.0 0.00 0.00 0.00 30 1021.6
20260904210037 81 256 13.0 21.0 0.00 0.00 0.00 31 1021.7
20260904205518 81 246 15.0 21.0 0.00 0.00 0.00 29 1021.9
20260904205018 80 233 13.0 22.0 0.00 0.00 0.00 31 1021.9
20260904204535 80 249 14.0 22.0 0.00 0.00 0.00 29 1021.9
20260904204017 80 205 9.0 22.0 0.00 0.00 0.00 30 1021.9
20260904203519 80 233 14.0 22.0 0.00 0.00 0.00 31 1021.9
20260904203044 81 240 10.0 21.0 0.00 0.00 0.00 30 1022.0
20260904202518 80 239 15.0 21.0 0.00 0.00 0.00 30 1022.2
20260904202020 79 226 14.0 20.0 0.00 0.00 0.00 32 1022.2
20260904201539 79 217 13.0 20.0 0.00 0.00 0.00 34 1022.3
20260904201020 79 268 13.0 19.0 0.00 0.00 0.00 33 1022.4
20260904200520 79 264 14.0 22.0 0.00 0.00 0.00 34 1022.5
20260904200036 80 285 13.0 22.0 0.00 0.00 0.00 33 1022.4
20260904195520 79 236 13.0 19.0 0.00 0.00 0.00 35 1022.5
20260904195020 78 188 12.0 20.0 0.00 0.00 0.00 35 1022.8
20260904194536 77 232 12.0 20.0 0.00 0.00 0.00 36 1022.7
20260904194017 78 232 14.0 20.0 0.00 0.00 0.00 36 1022.8
20260904193524 77 261 7.0 16.0 0.00 0.00 0.00 37 1022.8
20260904193039 77 262 10.0 19.0 0.00 0.00 0.00 38 1022.8
20260904192520 78 252 12.0 21.0 0.00 0.00 0.00 37 1022.8
20260904192021 77 228 9.0 21.0 0.00 0.00 0.00 38 1022.7
20260904191539 78 250 10.0 21.0 0.00 0.00 0.00 37 1022.9
20260904191020 77 198 12.0 18.0 0.00 0.00 0.00 37 1023.0
20260904190520 77 259 9.0 20.0 0.00 0.00 0.00 39 1023.0
20260904190040 75 216 13.0 20.0 0.00 0.00 0.00 40 1023.1
20260904185517 75 229 13.0 18.0 0.00 0.00 0.00 41 1022.9
20260904185022 77 238 12.0 21.0 0.00 0.00 0.00 39 1023.1
20260904184541 76 266 8.0 21.0 0.00 0.00 0.00 40 1023.1
20260904184020 75 181 15.0 21.0 0.00 0.00 0.00 40 1023.2
20260904183518 76 249 12.0 19.0 0.00 0.00 0.00 40 1023.2
20260904183042 76 212 10.0 17.0 0.00 0.00 0.00 40 1023.2
20260904182520 75 246 9.0 17.0 0.00 0.00 0.00 40 1023.3
20260904182024 74 228 10.0 16.0 0.00 0.00 0.00 43 1023.4
20260904181541 74 232 10.0 15.0 0.00 0.00 0.00 42 1023.4
20260904181023 74 266 9.0 15.0 0.00 0.00 0.00 42 1023.5
20260904180520 74 222 9.0 13.0 0.00 0.00 0.00 43 1023.4
20260904180039 74 225 6.0 16.0 0.00 0.00 0.00 43 1023.5
20260904175520 73 222 9.0 16.0 0.00 0.00 0.00 44 1023.6
20260904175020 74 209 8.0 14.0 0.00 0.00 0.00 44 1023.6
20260904174538 72 259 9.0 13.0 0.00 0.00 0.00 46 1023.6
20260904174018 73 257 5.0 16.0 0.00 0.00 0.00 46 1023.6
20260904173520 73 191 10.0 16.0 0.00 0.00 0.00 45 1023.5
20260904173038 73 233 10.0 14.0 0.00 0.00 0.00 44 1023.6
20260904172517 74 258 6.0 18.0 0.00 0.00 0.00 44 1023.6
20260904172018 74 221 13.0 20.0 0.00 0.00 0.00 44 1023.5
20260904171549 74 210 12.0 20.0 0.00 0.00 0.00 43 1023.5
20260904171017 75 186 10.0 16.0 0.00 0.00 0.00 43 1023.5
20260904170517 73 215 8.0 16.0 0.00 0.00 0.00 47 1023.6
20260904170038 72 210 10.0 16.0 0.00 0.00 0.00 47 1023.5
20260904165521 72 215 8.0 15.0 0.00 0.00 0.00 47 1023.5
20260904165019 73 202 10.0 15.0 0.00 0.00 0.00 45 1023.5
20260904164540 72 239 10.0 17.0 0.00 0.00 0.00 47 1023.4
20260904164020 73 255 7.0 17.0 0.00 0.00 0.00 46 1023.5
20260904163520 73 263 8.0 14.0 0.00 0.00 0.00 45 1023.6
20260904163042 73 241 9.0 17.0 0.00 0.00 0.00 46 1023.5
20260904162517 73 257 11.0 18.0 0.00 0.00 0.00 46 1023.5
20260904162018 72 224 10.0 18.0 0.00 0.00 0.00 48 1023.6
20260904161537 72 269 10.0 16.0 0.00 0.00 0.00 48 1023.5
20260904161019 71 245 10.0 18.0 0.00 0.00 0.00 47 1023.5
20260904160516 72 248 13.0 18.0 0.00 0.00 0.00 48 1023.6
20260904160048 71 257 11.0 17.0 0.00 0.00 0.00 48 1023.5
20260904155521 72 226 9.0 18.0 0.00 0.00 0.00 48 1023.5
20260904155019 71 179 10.0 18.0 0.00 0.00 0.00 49 1023.6
20260904154542 69 163 11.0 17.0 0.00 0.00 0.00 50 1023.6
20260904154020 69 233 5.0 11.0 0.00 0.00 0.00 51 1023.6
20260904153523 69 248 6.0 11.0 0.00 0.00 0.00 52 1023.6
20260904153041 69 239 7.0 12.0 0.00 0.00 0.00 51 1023.5
20260904152520 70 252 8.0 12.0 0.00 0.00 0.00 50 1023.5
20260904152017 70 222 7.0 12.0 0.00 0.00 0.00 50 1023.5
20260904151538 70 253 8.0 12.0 0.00 0.00 0.00 50 1023.4
20260904151019 70 168 6.0 12.0 0.00 0.00 0.00 50 1023.6
20260904150518 70 149 3.0 10.0 0.00 0.00 0.00 50 1023.6
20260904150043 69 152 6.0 10.0 0.00 0.00 0.00 50 1023.5
20260904145522 68 134 6.0 10.0 0.00 0.00 0.00 50 1023.5
20260904145019 68 156 6.0 10.0 0.00 0.00 0.00 51 1023.5
20260904144537 67 156 6.0 10.0 0.00 0.00 0.00 51 1023.5
20260904144020 66 145 5.0 9.0 0.00 0.00 0.00 52 1023.6
20260904143520 65 153 4.0 6.0 0.00 0.00 0.00 53 1023.5
20260904143038 64 158 3.0 4.0 0.00 0.00 0.00 53 1023.5
20260904142522 63 146 1.0 2.0 0.00 0.00 0.00 56 1023.5
20260904142022 62 141 0.0 3.0 0.00 0.00 0.00 56 1023.4
20260904141539 62 143 0.0 4.0 0.00 0.00 0.00 56 1023.5
20260904141020 62 151 2.0 4.0 0.00 0.00 0.00 56 1023.4
20260904140518 62 126 3.0 4.0 0.00 0.00 0.00 55 1023.4
20260904140057 62 156 2.0 4.0 0.00 0.00 0.00 55 1023.2
20260904135520 62 173 2.0 3.0 0.00 0.00 0.00 55 1023.1
20260904135019 61 169 2.0 3.0 0.00 0.00 0.00 56 1023.0
20260904134542 61 210 1.0 4.0 0.00 0.00 0.00 56 1022.9
20260904134018 61 219 2.0 4.0 0.00 0.00 0.00 56 1023.0
20260904133517 60 187 2.0 4.0 0.00 0.00 0.00 56 1022.9
20260904133047 60 160 3.0 6.0 0.00 0.00 0.00 56 1022.7
20260904132520 61 162 3.0 6.0 0.00 0.00 0.00 55 1022.6
20260904132021 61 165 4.0 6.0 0.00 0.00 0.00 55 1022.6
20260904131545 61 151 5.0 6.0 0.00 0.00 0.00 55 1022.6
20260904131019 61 149 4.0 5.0 0.00 0.00 0.00 55 1022.5
20260904130520 61 135 2.0 6.0 0.00 0.00 0.00 55 1022.4
20260904130049 60 130 4.0 6.0 0.00 0.00 0.00 56 1022.3
20260904125519 60 127 4.0 6.0 0.00 0.00 0.00 57 1022.2
20260904125021 60 137 3.0 6.0 0.00 0.00 0.00 57 1022.2
20260904124537 59 143 2.0 4.0 0.00 0.00 0.00 58 1022.2
20260904124020 59 0 0.0 2.0 0.00 0.00 0.00 58 1022.2
20260904123523 59 149 0.0 2.0 0.00 0.00 0.00 57 1022.1
20260904123040 60 146 0.0 3.0 0.00 0.00 0.00 57 1022.1
20260904122518 60 128 1.0 3.0 0.00 0.00 0.00 57 1021.9
20260904122023 59 127 1.0 3.0 0.00 0.00 0.00 57 1021.9
20260904121541 59 110 0.0 1.0 0.00 0.00 0.00 57 1021.9
20260904121018 59 127 0.0 1.0 0.00 0.00 0.00 57 1021.8
20260904120521 59 0 0.0 2.0 0.00 0.00 0.00 58 1021.7
20260904120038 59 134 0.0 2.0 0.00 0.00 0.00 58 1021.7
20260904115522 59 129 1.0 2.0 0.00 0.00 0.00 58 1021.7
20260904115022 59 0 0.0 1.0 0.00 0.00 0.00 60 1021.7
20260904114539 58 97 0.0 4.0 0.00 0.00 0.00 60 1021.6
20260904114020 58 0 0.0 4.0 0.00 0.00 0.00 60 1021.6
20260904113520 58 96 3.0 4.0 0.00 0.00 0.00 60 1021.6
20260904113039 58 89 3.0 4.0 0.00 0.00 0.00 61 1021.6
20260904112518 57 79 3.0 4.0 0.00 0.00 0.00 61 1021.6
20260904112019 57 75 1.0 3.0 0.00 0.00 0.00 62 1021.6
20260904111540 56 101 2.0 4.0 0.00 0.00 0.00 63 1021.7
20260904111019 56 102 2.0 5.0 0.00 0.00 0.00 62 1021.6
20260904110517 55 117 3.0 5.0 0.00 0.00 0.00 63 1021.6
20260904110040 55 111 3.0 5.0 0.00 0.00 0.00 64 1021.6
20260904105521 55 102 3.0 5.0 0.00 0.00 0.00 63 1021.5
20260904105017 55 122 3.0 5.0 0.00 0.00 0.00 62 1021.4
20260904104538 56 110 3.0 5.0 0.00 0.00 0.00 60 1021.4
20260904104021 56 117 2.0 5.0 0.00 0.00 0.00 60 1021.3
20260904103518 56 136 4.0 5.0 0.00 0.00 0.00 59 1021.3
20260904103041 56 105 3.0 5.0 0.00 0.00 0.00 60 1021.2
20260904102522 57 115 2.0 6.0 0.00 0.00 0.00 58 1021.1
20260904102018 58 123 3.0 6.0 0.00 0.00 0.00 56 1021.1
20260904101535 58 127 4.0 6.0 0.00 0.00 0.00 56 1021.0
20260904101020 58 134 4.0 7.0 0.00 0.00 0.00 56 1020.9
20260904100517 57 136 4.0 7.0 0.00 0.00 0.00 58 1021.0
20260904100038 57 125 6.0 7.0 0.00 0.00 0.00 58 1021.0
20260904095520 57 114 4.0 6.0 0.00 0.00 0.00 59 1021.0
20260904095018 56 116 4.0 6.0 0.00 0.00 0.00 59 1020.9
20260904094539 56 110 4.0 5.0 0.00 0.00 0.00 59 1020.8
20260904094018 55 110 4.0 7.0 0.00 0.00 0.00 60 1020.8
20260904093520 56 106 5.0 7.0 0.00 0.00 0.00 59 1020.7
20260904093038 57 101 6.0 7.0 0.00 0.00 0.00 57 1020.5
20260904092520 57 117 5.0 7.0 0.00 0.00 0.00 56 1020.6
20260904092019 58 124 4.0 7.0 0.00 0.00 0.00 55 1020.5
20260904091537 58 120 4.0 7.0 0.00 0.00 0.00 55 1020.5
20260904091019 58 118 5.0 8.0 0.00 0.00 0.00 55 1020.5
20260904090518 58 124 6.0 8.0 0.00 0.00 0.00 55 1020.6
20260904090039 58 129 6.0 7.0 0.00 0.00 0.00 55 1020.5
20260904085519 58 114 5.0 6.0 0.00 0.00 0.00 55 1020.5
20260904085018 57 112 3.0 4.0 0.00 0.00 0.00 55 1020.5
20260904084536 57 116 3.0 4.0 0.00 0.00 0.00 55 1020.4
20260904084023 57 127 3.0 5.0 0.00 0.00 0.00 56 1020.5
20260904083519 58 110 3.0 5.0 0.00 0.00 0.00 54 1020.5
20260904083039 58 117 3.0 5.0 0.00 0.00 0.00 53 1020.5
20260904082519 58 110 3.0 6.0 0.00 0.00 0.00 53 1020.6
20260904082017 59 112 4.0 6.0 0.00 0.00 0.00 52 1020.5
20260904081539 59 124 4.0 7.0 0.00 0.00 0.00 51 1020.6
20260904081017 60 131 5.0 7.0 0.00 0.00 0.00 50 1020.6
20260904080520 60 134 5.0 7.0 0.00 0.00 0.00 50 1020.6
20260904080035 60 136 4.0 10.0 0.00 0.00 0.00 50 1020.6
20260904075520 60 131 5.0 10.0 0.00 0.00 0.00 50 1020.7
20260904075020 60 131 7.0 10.0 0.00 0.00 0.00 50 1020.8
20260904074539 60 143 6.0 10.0 0.00 0.00 0.00 50 1020.7
20260904074017 60 149 6.0 12.0 0.00 0.00 0.00 50 1020.7
20260904073521 60 151 7.0 12.0 0.00 0.00 0.00 50 1020.6
20260904073037 60 115 5.0 9.0 0.00 0.00 0.00 50 1020.5
20260904072517 60 127 5.0 8.0 0.00 0.00 0.00 50 1020.5
20260904072017 60 145 5.0 8.0 0.00 0.00 0.00 50 1020.5
20260904071539 60 137 4.0 10.0 0.00 0.00 0.00 49 1020.4
20260904071020 61 137 6.0 10.0 0.00 0.00 0.00 49 1020.5
20260904070520 61 139 5.0 10.0 0.00 0.00 0.00 49 1020.4
20260904070040 61 151 6.0 9.0 0.00 0.00 0.00 48 1020.4
20260904065519 61 115 6.0 9.0 0.00 0.00 0.00 48 1020.5
20260904065019 61 141 4.0 9.0 0.00 0.00 0.00 48 1020.5
20260904064539 62 165 5.0 9.0 0.00 0.00 0.00 47 1020.5
20260904064016 62 165 6.0 10.0 0.00 0.00 0.00 47 1020.4
20260904063522 62 126 6.0 10.0 0.00 0.00 0.00 47 1020.5
20260904063042 62 142 6.0 10.0 0.00 0.00 0.00 47 1020.5
20260904062520 62 135 6.0 10.0 0.00 0.00 0.00 47 1020.5
20260904062019 62 141 7.0 10.0 0.00 0.00 0.00 47 1020.4
20260904061539 61 133 6.0 9.0 0.00 0.00 0.00 49 1020.4
20260904061021 59 120 5.0 7.0 0.00 0.00 0.00 53 1020.4
20260904060520 59 115 6.0 7.0 0.00 0.00 0.00 54 1020.5
20260904060040 58 111 5.0 8.0 0.00 0.00 0.00 55 1020.5
20260904055520 58 106 6.0 8.0 0.00 0.00 0.00 55 1020.5
20260904055017 58 120 6.0 9.0 0.00 0.00 0.00 55 1020.5
20260904054538 59 100 7.0 10.0 0.00 0.00 0.00 54 1020.5
20260904054020 58 111 7.0 10.0 0.00 0.00 0.00 54 1020.5
20260904053517 58 103 7.0 10.0 0.00 0.00 0.00 55 1020.5
20260904053037 58 106 7.0 10.0 0.00 0.00 0.00 55 1020.4
20260904052518 58 117 6.0 9.0 0.00 0.00 0.00 55 1020.5
20260904052021 57 105 7.0 9.0 0.00 0.00 0.00 56 1020.5
20260904051556 56 105 6.0 7.0 0.00 0.00 0.00 57 1020.5
20260904051017 56 101 6.0 7.0 0.00 0.00 0.00 59 1020.5
20260904050519 56 94 5.0 7.0 0.00 0.00 0.00 59 1020.5
20260904050040 56 92 6.0 8.0 0.00 0.00 0.00 59 1020.5
20260904045519 56 84 6.0 8.0 0.00 0.00 0.00 58 1020.5
20260904045020 56 92 6.0 7.0 0.00 0.00 0.00 58 1020.6
20260904044537 56 96 6.0 7.0 0.00 0.00 0.00 58 1020.6
20260904044017 56 106 5.0 7.0 0.00 0.00 0.00 58 1020.6
20260904043518 56 86 5.0 7.0 0.00 0.00 0.00 57 1020.6
20260904043039 56 122 4.0 6.0 0.00 0.00 0.00 58 1020.7
20260904042519 56 88 2.0 4.0 0.00 0.00 0.00 57 1020.7
20260904042021 56 87 3.0 4.0 0.00 0.00 0.00 58 1020.8
20260904041539 56 101 3.0 5.0 0.00 0.00 0.00 58 1020.8
20260904041018 56 93 3.0 5.0 0.00 0.00 0.00 57 1020.8
20260904040520 56 101 4.0 6.0 0.00 0.00 0.00 57 1020.9
20260904040039 57 101 4.0 6.0 0.00 0.00 0.00 56 1020.8
20260904035519 57 97 4.0 5.0 0.00 0.00 0.00 54 1020.8
20260904035018 58 99 4.0 6.0 0.00 0.00 0.00 53 1020.8
20260904034537 59 121 4.0 6.0 0.00 0.00 0.00 51 1020.7
20260904034020 59 101 3.0 7.0 0.00 0.00 0.00 50 1020.7
20260904033520 61 124 4.0 7.0 0.00 0.00 0.00 48 1020.6
20260904033040 59 116 4.0 6.0 0.00 0.00 0.00 50 1020.5
20260904032518 59 118 3.0 4.0 0.00 0.00 0.00 51 1020.7
20260904032023 59 91 3.0 5.0 0.00 0.00 0.00 52 1020.6
20260904031538 60 97 3.0 5.0 0.00 0.00 0.00 50 1020.4
20260904031018 61 105 2.0 6.0 0.00 0.00 0.00 48 1020.5
20260904030518 64 103 3.0 6.0 0.00 0.00 0.00 43 1020.5
20260904030036 64 137 2.0 5.0 0.00 0.00 0.00 43 1020.4
20260904025521 63 130 3.0 5.0 0.00 0.00 0.00 44 1020.4
20260904025017 63 127 2.0 3.0 0.00 0.00 0.00 44 1020.4
20260904024542 63 126 2.0 3.0 0.00 0.00 0.00 43 1020.3
20260904024018 65 106 2.0 2.0 0.00 0.00 0.00 41 1020.3
20260904023523 67 115 2.0 3.0 0.00 0.00 0.00 39 1020.3
20260904023038 68 123 2.0 4.0 0.00 0.00 0.00 38 1020.2
20260904022518 69 132 2.0 6.0 0.00 0.00 0.00 36 1020.2
20260904022023 70 146 3.0 10.0 0.00 0.00 0.00 35 1020.1
20260904021539 71 193 4.0 10.0 0.00 0.00 0.00 35 1020.1
20260904021023 71 229 4.0 8.0 0.00 0.00 0.00 35 1020.0
20260904020519 71 216 3.0 6.0 0.00 0.00 0.00 35 1019.9
20260904020038 72 224 4.0 6.0 0.00 0.00 0.00 34 1019.9
20260904015517 72 217 3.0 13.0 0.00 0.00 0.00 33 1019.8
20260904015020 73 187 7.0 13.0 0.00 0.00 0.00 33 1019.9
20260904014550 73 174 7.0 10.0 0.00 0.00 0.00 33 1019.9
20260904014019 73 229 4.0 11.0 0.00 0.00 0.00 32 1019.9
20260904013518 74 178 8.0 12.0 0.00 0.00 0.00 31 1019.8
20260904013035 74 185 6.0 12.0 0.00 0.00 0.00 31 1019.9